{"data":{"norad_id":67803,"epoch":"2026-09-19T06:34:00.035328Z","epoch_age_seconds":172399,"freshness":"FRESH","line1":"1 67803U 26032G   26262.27361152  .00017791  00000+0  55204-3 0  9995","line2":"2 67803  97.2852  88.6428 0001620  83.6156 276.5271 15.33448658 34625","mean_motion":15.33448658,"eccentricity":0.000162,"inclination_deg":97.2852,"raan_deg":88.6428,"arg_perigee_deg":83.6156,"mean_anomaly_deg":276.5271,"bstar":0.00055204,"rev_number":3462,"period_min":93.905980646142,"perigee_km":464.42361644027,"apogee_km":466.64096529051,"semimajor_km":6843.6692908654,"source":"CELESTRAK","updated_at":"2026-09-20T09:00:43.662924Z"}}